Location: Newark
(6.1731°S, 35.7419°E)
Time: 15:04:27
(UTC+00:00)

Altair - Pass Details

Date: 20 February 2020
Orbit: 1501 x 1682 km, 47.2° (Epoch: 01 April)

Event Time Altitude Azimuth Distance (km) Brightness Sun altitude
Rises 20:21:09 0° 233° (SW) 4,638 10.4 -61.9°
Reaches altitude 10° 20:24:20 10° 239° (WSW) 3,652 9.7 -62.5°
Enters shadow 20:24:29 11° 240° (WSW) 3,609 9.7 -62.6°
